PICARD

Last updated on Thu May 05 2016 08:39:32 GMT+0100 (British Summer Time)

1 36598U 10028A 16126.19331338 .00000091 00000-0 34626-4 0 9994 2 36598 98.3121 311.0902 0001756 125.9638 234.1714 14.50442928311619
UTC large
Height (km)
Speed (km/s)
/
Latitude / Longitude
Inclination (degrees)
Orbital Period (minutes)
Azimuth
Elevation
Range (km)
Doppler Factor

Next 0 passes for location: London (51.5072 / 0.1276)

Sorry there are no passes over London.